Location: Topeka
(39.0480°N, 95.6780°W)
Time: 11:55:40
(UTC-05:00)

ISS - Visible Passes

Search period start: 22 September 2018 00:00
Search period end: 02 October 2018 00:00
Orbit: 403 x 408 km, 51.6° (Epoch: 22 September)

Date Brightness Start Highest point End Pass type
(mag) Time Alt. Az. Time Alt. Az. Time Alt. Az.
22 Sep -2.7 21:09:06 10° WSW 21:12:14 41° NNW 21:12:28 40° NNW visible
23 Sep -3.7 20:17:03 10° SW 20:20:20 78° NW 20:23:10 13° NE visible
23 Sep -0.4 21:55:12 10° WNW 21:55:53 13° NW 21:55:53 13° NW visible
24 Sep -1.6 21:02:32 10° W 21:05:11 22° NNW 21:06:23 18° N visible
25 Sep -2.2 20:10:06 10° W 20:13:08 33° NNW 20:16:11 10° NE visible
25 Sep -0.4 21:49:20 10° NNW 21:49:26 10° NNW 21:49:26 10° NNW visible
26 Sep -1.1 20:56:22 10° NW 20:58:12 14° NNW 20:59:41 11° N visible
27 Sep -1.4 20:03:36 10° WNW 20:06:02 19° NNW 20:08:29 10° NNE visible
28 Sep -0.9 20:50:35 10° NNW 20:51:18 10° N 20:52:00 10° N visible
29 Sep -1.1 19:57:27 10° NW 19:59:01 13° NNW 20:00:35 10° NNE visible
